User: anonymous   Login
Location: Owatonna
(44.0840°N, 93.2260°W)
Time: 17:58:44
(UTC-05:00)
Language:

ALOS - Orbit

View from above orbital plane
View from above orbital plane
View from above satellite
View from above satellite

Ground track
Ground track

The orbit data is extracted from the following two-line orbital elements,

1 28931U 06002A   18109.86887187  .00000144  00000-0  37091-4 0  9996
2 28931  97.8232 126.4995 0002635  71.7137 288.4349 14.62479444652280
Epoch (UTC): 19 April 2018 20:51:10
Eccentricity: 0.0002635
inclination: 97.8232°
perigee height: 683 km
apogee height: 687 km
right ascension of ascending node: 126.4995°
argument of perigee: 71.7137°
revolutions per day: 14.62479444
mean anomaly at epoch: 288.4349°
orbit number at epoch: 65228

The dashed part of the orbit path shows where the satellite is in the earth's shadow,  

DLR